Meteo Giornale » Osservazioni meteo Corea del Sud » Gongju

ore: 04:50 - Osservazioni Meteo Gongju
Lat. 36° 28' N Lon. 127° 6' E Alt. 33 metri s.l.m.

coperto

23 °C

Coperto

Temp. 24 Ore

23 °C

29 °C

Nord

1.8 Km/h

Dew point 22 °C

Umidità 94 %

Visibilità  10 Km

Il sole sorge alle ore 06:03

Il sole tramonta alle ore 18:59

Data e Ora Cielo e Fenomeni T °C DP °C Um. % Pres. hPa Vis. km Vento km/h
Oggi h: 04:50 coperto Coperto 23 22 94 1011 10 N 1.8
Oggi h: 04:40 coperto Coperto 23 22 94 1011 10 N 1.8
Oggi h: 04:30 coperto Coperto 23 22 94 1011 10 N 1.8
Oggi h: 04:20 coperto Coperto 23 22 94 1011 10 N 3.7
Oggi h: 04:10 molto_nuvoloso Molto Nuvoloso 23 23 100 1011 10 N 1.8
Oggi h: 04:00 molto_nuvoloso Molto Nuvoloso 24 23 94 1011 10 N 5.5
Oggi h: 03:50 molto_nuvoloso Molto Nuvoloso 24 22 88 1011 10 N 3.7
Oggi h: 03:40 molto_nuvoloso Molto Nuvoloso 24 22 88 1011 10 N 1.8
Oggi h: 03:30 molto_nuvoloso Molto Nuvoloso 24 22 88 1011 10 N 3.7
Oggi h: 03:20 molto_nuvoloso Molto Nuvoloso 24 23 94 1011 10 N 3.7
Oggi h: 03:10 coperto Coperto 24 23 94 1011 10 N 1.8
Oggi h: 03:00 coperto Coperto 24 23 94 1011 10 N 1.8
Oggi h: 02:50 coperto Coperto 24 23 94 1011 10 N 3.7
Oggi h: 02:30 coperto Coperto 24 23 94 1011 10 N 1.8
Oggi h: 02:20 coperto Coperto 24 23 94 1011 10 N 1.8
Oggi h: 02:10 coperto Coperto 24 23 94 1011 10 N 1.8
Oggi h: 02:00 coperto Coperto 24 23 94 1011 10 N 1.8
Oggi h: 01:50 coperto Coperto 24 23 94 1011 10 N 1.8
Oggi h: 01:40 coperto Coperto 24 23 94 1011 10 N 1.8
Oggi h: 01:30 coperto Coperto 24 23 94 1011 10 N 3.7
Oggi h: 01:20 molto_nuvoloso Molto Nuvoloso 24 23 94 1011 10 N 3.7
Oggi h: 01:10 molto_nuvoloso Molto Nuvoloso 24 23 94 1011 10 N 1.8
Oggi h: 01:00 molto_nuvoloso Molto Nuvoloso 24 23 94 1011 10 N 1.8
Oggi h: 00:50 molto_nuvoloso Molto Nuvoloso 24 23 94 1011 10 N 3.7
Oggi h: 00:40 molto_nuvoloso Molto Nuvoloso 24 23 94 1011 10 N 3.7
Oggi h: 00:30 molto_nuvoloso Molto Nuvoloso 23 23 100 1011 10 N 1.8
Oggi h: 00:20 nuvoloso Nuvoloso 23 23 100 1011 10 N 1.8
Oggi h: 00:10 nuvoloso Nuvoloso 24 23 94 1011 10 N 1.8
Oggi h: 00:00 poco_nuvoloso Poco Nuvoloso 24 23 94 1011 10 N 1.8
Ieri h: 23:50 poco_nuvoloso Poco Nuvoloso 24 23 94 1011 10 N 0
Ieri h: 23:40 poco_nuvoloso Poco Nuvoloso 24 23 94 1011 10 N 0
Ieri h: 23:30 nuvoloso Nuvoloso 24 23 94 1011 10 N 1.8
Ieri h: 23:20 molto_nuvoloso Molto Nuvoloso 24 23 94 1011 10 N 1.8
Ieri h: 23:10 molto_nuvoloso Molto Nuvoloso 24 23 94 1011 10 N 1.8
Ieri h: 23:00 molto_nuvoloso Molto Nuvoloso 25 23 88 1011 10 N 3.7
Ieri h: 22:50 molto_nuvoloso Molto Nuvoloso 25 23 88 1011 10 N 1.8
Ieri h: 22:40 molto_nuvoloso Molto Nuvoloso 25 23 88 1011 10 N 3.7
Ieri h: 22:30 coperto Coperto 25 23 88 1011 10 S/SO 7.4
Ieri h: 22:20 molto_nuvoloso Molto Nuvoloso 25 23 88 1011 10 N 5.5
Ieri h: 22:10 molto_nuvoloso Molto Nuvoloso 25 23 88 1011 10 N 1.8
Ieri h: 22:00 molto_nuvoloso Molto Nuvoloso 25 23 88 1011 10 N 1.8
Ieri h: 21:50 molto_nuvoloso Molto Nuvoloso 25 23 88 1011 10 N 1.8
Ieri h: 21:40 molto_nuvoloso Molto Nuvoloso 25 23 88 1011 10 N 1.8
Ieri h: 21:30 molto_nuvoloso Molto Nuvoloso 25 23 88 1011 10 N 1.8
Ieri h: 21:20 molto_nuvoloso Molto Nuvoloso 25 23 88 1011 10 N 1.8
Ieri h: 21:10 molto_nuvoloso Molto Nuvoloso 25 23 88 1011 10 N 3.7
Ieri h: 21:00 molto_nuvoloso Molto Nuvoloso 25 23 88 1011 10 N 1.8
Ieri h: 20:50 poco_nuvoloso Poco Nuvoloso 25 23 88 1010 10 N 1.8
Ieri h: 20:40 sereno Sereno 25 23 88 1010 10 N 3.7
Ieri h: 20:30 sereno Sereno 25 23 88 1010 10 N 3.7
Ieri h: 20:20 sereno Sereno 25 23 88 1010 10 N 3.7
Ieri h: 20:10 sereno Sereno 25 23 88 1010 10 N 1.8
Ieri h: 20:00 sereno Sereno 26 23 83 1010 10 N 1.8
Ieri h: 19:50 sereno Sereno 26 23 83 1009 10 N 1.8
Ieri h: 19:40 sereno Sereno 26 23 83 1009 10 N 1.8
Ieri h: 19:30 sereno Sereno 26 23 83 1009 10 N 1.8
Ieri h: 19:20 sereno Sereno 26 23 83 1009 10 N 5.5
Ieri h: 19:10 sereno Sereno 26 23 83 1009 10 N 3.7
Ieri h: 19:00 poco_nuvoloso Poco Nuvoloso 27 23 78 1009 10 N 1.8
Ieri h: 18:50 nuvoloso Nuvoloso 27 23 78 1009 10 N 1.8
Ieri h: 18:40 molto_nuvoloso Molto Nuvoloso 27 23 78 1009 10 N 5.5
Ieri h: 18:30 molto_nuvoloso Molto Nuvoloso 27 23 78 1009 10 N 5.5
Ieri h: 18:20 molto_nuvoloso Molto Nuvoloso 27 23 78 1009 10 SO 7.4
Ieri h: 18:10 molto_nuvoloso Molto Nuvoloso 27 23 78 1009 10 N 5.5
Ieri h: 18:00 molto_nuvoloso Molto Nuvoloso 28 23 74 1009 10 N 5.5
Ieri h: 17:50 molto_nuvoloso Molto Nuvoloso 28 23 74 1009 10 SO 7.4
Ieri h: 17:40 molto_nuvoloso Molto Nuvoloso 28 23 74 1009 10 SO 7.4
Ieri h: 17:30 nuvoloso Nuvoloso 28 23 74 1009 10 SO 11.1
Ieri h: 17:20 sereno Sereno 28 23 74 1009 10 O/SO 11.1
Ieri h: 17:10 sereno Sereno 29 24 74 1009 10 O/SO 7.4
Ieri h: 17:00 poco_nuvoloso Poco Nuvoloso 29 24 74 1009 10 N 5.5
Ieri h: 16:50 poco_nuvoloso Poco Nuvoloso 29 24 74 1009 10 N 5.5
Ieri h: 16:40 poco_nuvoloso Poco Nuvoloso 29 24 74 1009 10 N 5.5
Ieri h: 16:30 nuvoloso Nuvoloso 29 24 74 1009 10 SO 9.3
Ieri h: 16:20 molto_nuvoloso Molto Nuvoloso 29 24 74 1009 10 SO 11.1
Ieri h: 16:10 molto_nuvoloso Molto Nuvoloso 29 24 74 1009 10 O/SO 7.4
Ieri h: 16:00 molto_nuvoloso Molto Nuvoloso 29 25 79 1009 10 N 5.5
Ieri h: 15:50 molto_nuvoloso Molto Nuvoloso 29 25 79 1009 10 N 5.5
Ieri h: 15:40 molto_nuvoloso Molto Nuvoloso 29 25 79 1009 10 N 3.7
Ieri h: 15:30 molto_nuvoloso Molto Nuvoloso 29 25 79 1009 10 N 3.7
Ieri h: 15:20 molto_nuvoloso Molto Nuvoloso 29 24 74 1009 10 O 7.4
Ieri h: 15:10 molto_nuvoloso Molto Nuvoloso 29 24 74 1009 10 O/SO 7.4
Ieri h: 15:00 molto_nuvoloso Molto Nuvoloso 29 24 74 1009 10 O/SO 7.4
Ieri h: 14:50 molto_nuvoloso Molto Nuvoloso 29 24 74 1008 10 N 5.5
Ieri h: 14:40 molto_nuvoloso Molto Nuvoloso 28 24 78 1009 10 O/SO 9.3
Ieri h: 14:30 molto_nuvoloso Molto Nuvoloso 28 24 78 1009 10 S/SO 7.4
Ieri h: 14:20 molto_nuvoloso Molto Nuvoloso 28 25 83 1009 10 N 5.5
Ieri h: 14:10 molto_nuvoloso Molto Nuvoloso 28 24 78 1009 10 N 5.5
Ieri h: 14:00 molto_nuvoloso Molto Nuvoloso 28 24 78 1009 10 N 5.5
Ieri h: 13:50 molto_nuvoloso Molto Nuvoloso 28 24 78 1009 10 S/SO 9.3
Ieri h: 13:40 molto_nuvoloso Molto Nuvoloso 28 25 83 1009 10 N 1.8
Ieri h: 13:30 molto_nuvoloso Molto Nuvoloso 27 25 88 1009 10 N 5.5
Ieri h: 13:20 nuvoloso_piovaschi Pioggia 25 24 94 1009 3 S/SO 9.3
Ieri h: 13:10 coperto Coperto 26 24 88 1009 10 O/SO 13
Ieri h: 13:00 coperto Coperto 29 23 70 1009 10 O/SO 9.3
Ieri h: 12:50 molto_nuvoloso Molto Nuvoloso 29 24 74 1009 10 N 3.7
Ieri h: 12:40 molto_nuvoloso Molto Nuvoloso 29 23 70 1009 10 S 7.4
Ieri h: 12:30 molto_nuvoloso Molto Nuvoloso 29 24 74 1009 10 E/SE 7.4
Ieri h: 12:20 molto_nuvoloso Molto Nuvoloso 29 24 74 1009 10 N 3.7
Ieri h: 12:10 molto_nuvoloso Molto Nuvoloso 29 24 74 1009 10 N 3.7
Ieri h: 12:00 molto_nuvoloso Molto Nuvoloso 29 24 74 1009 10 E 7.4
Ieri h: 11:50 molto_nuvoloso Molto Nuvoloso 29 24 74 1009 10 N 5.5
Ieri h: 11:40 molto_nuvoloso Molto Nuvoloso 29 24 74 1009 10 E 7.4
Ieri h: 11:30 molto_nuvoloso Molto Nuvoloso 29 24 74 1010 10 E 7.4
Ieri h: 11:20 molto_nuvoloso Molto Nuvoloso 28 24 78 1010 10 N 5.5
Ieri h: 11:10 molto_nuvoloso Molto Nuvoloso 28 24 78 1010 10 N 5.5
Ieri h: 11:00 nuvoloso Nuvoloso 29 25 79 1010 10 N 3.7
Ieri h: 10:50 molto_nuvoloso Molto Nuvoloso 28 24 78 1010 10 N 5.5
Ieri h: 10:40 molto_nuvoloso Molto Nuvoloso 27 24 83 1010 10 N 5.5
Ieri h: 10:30 molto_nuvoloso Molto Nuvoloso 27 24 83 1010 10 N 5.5
Ieri h: 10:20 molto_nuvoloso Molto Nuvoloso 27 24 83 1010 10 N 1.8
Ieri h: 10:10 nuvoloso Nuvoloso 27 24 83 1010 10 N 3.7
Ieri h: 10:00 molto_nuvoloso Molto Nuvoloso 26 24 88 1010 10 N 5.5
Ieri h: 09:50 molto_nuvoloso Molto Nuvoloso 26 24 88 1010 10 N 3.7
Ieri h: 09:40 molto_nuvoloso Molto Nuvoloso 26 25 94 1010 10 N 3.7
Ieri h: 09:30 molto_nuvoloso Molto Nuvoloso 25 24 94 1010 10 N 5.5
Ieri h: 09:20 molto_nuvoloso Molto Nuvoloso 25 24 94 1010 10 N 3.7
Ieri h: 09:10 molto_nuvoloso Molto Nuvoloso 25 24 94 1010 10 N 1.8
Ieri h: 09:00 molto_nuvoloso Molto Nuvoloso 25 24 94 1010 10 N 1.8
Ieri h: 08:50 molto_nuvoloso Molto Nuvoloso 25 24 94 1010 10 N 5.5
Ieri h: 08:40 molto_nuvoloso Molto Nuvoloso 25 24 94 1010 10 N 1.8
Ieri h: 08:30 molto_nuvoloso Molto Nuvoloso 24 24 100 1010 10 N 1.8
Ieri h: 08:20 molto_nuvoloso Molto Nuvoloso 24 24 100 1010 10 N 1.8
Ieri h: 08:10 molto_nuvoloso Molto Nuvoloso 24 24 100 1010 10 N 3.7
Ieri h: 08:00 molto_nuvoloso Molto Nuvoloso 24 24 100 1010 10 N 1.8
Ieri h: 07:50 molto_nuvoloso Molto Nuvoloso 24 24 100 1010 10 N 1.8
Ieri h: 07:40 molto_nuvoloso Molto Nuvoloso 24 24 100 1010 10 N 1.8
Ieri h: 07:30 molto_nuvoloso Molto Nuvoloso 24 24 100 1010 10 N 1.8
Ieri h: 07:20 molto_nuvoloso Molto Nuvoloso 24 23 94 1010 10 N 1.8
Ieri h: 07:10 coperto Coperto 23 23 100 1010 10 N 1.8
Ieri h: 07:00 coperto Coperto 23 23 100 1010 6 N 1.8
Ieri h: 06:50 foschia Foschia 23 23 100 1010 3 N 1.8
Ieri h: 06:40 foschia Foschia 23 23 100 1010 3 N 0
Ieri h: 06:30 coperto Coperto 23 23 100 1010 6 N 1.8
Ieri h: 06:20 coperto Coperto 23 23 100 1010 6 N 3.7
Ieri h: 06:10 foschia Foschia 23 23 100 1010 4 N 1.8
Ieri h: 06:00 foschia Foschia 23 23 100 1010 3 N 1.8
Ieri h: 05:50 foschia Foschia 23 23 100 1009 4 N 1.8
Ieri h: 05:40 molto_nuvoloso Molto Nuvoloso 23 23 100 1009 10 N 1.8
Previsioni Meteo per località vicine a Gongju